Location: Roanoke
(37.2710°N, 79.9420°W)
Time: 00:39:15
(UTC-04:00)

Daily predictions for brighter satellites

Satellite Brightness Start Highest point End
(mag) Time Altitude Azimuth Time Altitude Azimuth Time Altitude Azimuth
Lacrosse 5 4.2 00:07:58 10° NNW 00:09:43 20° NNW 00:09:43 20° NNW
Cosmos 1943 Rocket 4.2 00:34:11 10° NNW 00:36:08 22° NNW 00:36:08 22° NNW
ADEOS Rocket 4.4 01:17:58 10° NNE 01:21:59 38° N 01:21:59 38° N
CZ-2D R/B 3.8 02:44:10 10° NNE 02:47:20 29° ENE 02:47:20 29° ENE
SL-16 R/B 3.3 02:51:48 46° ENE 02:51:48 46° ENE 02:57:37 10° N
Cosmos 1980 Rocket 3.9 02:51:58 10° N 02:56:45 28° ENE 02:58:11 25° E
Cosmos 1697 Rocket 3.9 02:53:52 10° NNW 02:57:47 39° NNE 02:57:47 39° NNE
Cosmos 2082 Rocket 3.2 03:06:40 42° NNE 03:06:40 42° NNE 03:10:21 10° NNE
ATLAS 3B R/B 4.1 03:16:15 26° ESE 03:17:17 27° ESE 03:23:00 10° NE
Cosmos 1634 Rocket 4.1 03:24:53 70° NNE 03:24:53 70° NNE 03:30:25 10° N
Resurs 1-4 Rocket 2.9 03:19:45 10° NNE 03:23:33 49° NNE 03:23:33 49° NNE
Cosmos 2279 Rocket 4.2 03:36:56 59° ESE 03:37:32 61° E 03:43:41 10° NNE
Cosmos 1833 Rocket 3.8 03:41:36 34° NW 03:41:36 34° NW 03:45:42 10° N
USA 215 4.2 03:38:43 10° ENE 03:44:33 34° SE 03:45:35 32° SE
Cosmos 2208 Rocket 4.4 03:46:29 59° N 03:46:29 59° N 03:50:47 10° NNE
Cosmos 2026 Rocket 3.9 03:42:47 10° N 03:49:12 89° W 03:49:30 82° S
Cosmos 1898 Rocket 4.0 03:46:20 10° N 03:51:29 57° ENE 03:52:29 48° ESE
SEDSat Delta rocket 4.4 03:53:46 45° SE 03:53:46 45° SE 03:59:05 10° ESE
BREEZE-M R/B 4.2 04:00:43 34° NE 04:00:43 34° NE 04:03:38 10° NE
Cosmos 1937 Rocket 4.2 03:56:44 10° N 04:01:47 50° ENE 04:05:30 17° SE
Cosmos 724 4.0 04:05:15 80° WSW 04:05:33 85° WNW 04:11:23 10° NNE
Cosmos 1766 4.4 04:02:13 10° N 04:04:57 40° NNE 04:04:57 40° NNE
Cosmos 2360 4.0 04:01:32 10° NNW 04:07:09 77° W 04:07:09 77° W
Timation 2 Rocket 3.9 04:07:41 56° SSE 04:08:52 71° ESE 04:14:50 10° NNE
Lacrosse 5 rocket 3.6 04:11:25 16° NNW 04:11:25 16° NNW 04:13:54 10° N
Cosmos 468 Rocket 4.2 04:12:08 59° WNW 04:12:08 59° WNW 04:17:11 10° N
ARIANE 5 R/B 2.8 04:08:50 10° N 04:13:42 55° WNW 04:13:42 55° WNW
Spot 4 Rocket 4.3 04:09:43 10° N 04:14:22 51° WNW 04:14:22 51° WNW
Cosmos 990 Rocket 4.2 04:11:53 10° NNW 04:17:02 69° ENE 04:20:38 20° SSE
USA 238 DEB 3.6 04:17:40 49° SSW 04:19:43 84° ESE 04:26:41 10° NE
USA 238 3.6 04:17:45 49° SSW 04:19:48 83° ESE 04:26:47 10° NE
Cosmos 1814 Rocket 3.8 04:20:49 73° SW 04:21:19 84° WNW 04:26:31 10° NNE
Cosmos 2266 Rocket 4.5 04:18:27 10° N 04:24:26 57° E 04:30:29 10° SSE
Cosmos 1655 Rocket 3.9 04:19:20 10° NNW 04:25:41 69° W 04:27:55 42° SSW
DNEPR-1 R/B 4.2 04:26:52 40° SE 04:27:30 44° ESE 04:31:42 10° NE
Helios 1A Rocket 3.6 04:24:06 10° N 04:27:22 42° NW 04:27:22 42° NW
CZ-2D R/B 3.4 04:24:32 10° NNW 04:28:39 26° WNW 04:28:39 26° WNW
CZ-2D R/B 3.6 04:25:16 10° N 04:28:56 60° NW 04:28:56 60° NW
Cosmos 2150 Rocket 4.4 04:25:06 10° NNW 04:30:34 68° ENE 04:35:59 10° SSE
Meteor 1-21 4.1 04:33:26 45° SSW 04:35:12 78° W 04:40:51 10° N
SL-16 R/B 3.8 04:36:53 24° WNW 04:36:53 24° WNW 04:40:33 10° NW
Cosmos 1726 Rocket 4.2 04:32:20 10° NNW 04:35:31 40° NW 04:35:31 40° NW
Cosmos 2298 Rocket 4.0 04:32:25 10° NNW 04:37:46 88° ENE 04:43:04 10° SSE
Cosmos 2360 Rocket 4.4 04:33:34 10° N 04:38:13 26° ENE 04:42:50 10° ESE
Cosmos 1980 Rocket 2.8 04:35:39 10° NW 04:39:51 35° W 04:39:51 35° W
Meteor 2-11 Rocket 4.4 04:41:35 23° S 04:45:38 86° E 04:51:49 10° N
Cosmos 2082 Rocket 4.3 04:48:31 11° WNW 04:49:38 12° NW 04:51:45 10° NNW
ADEOS II 2.0 04:44:36 10° N 04:49:51 77° WNW 04:52:21 32° SSW
Cosmos 841 Rocket 3.5 04:48:22 42° SW 04:49:56 62° WNW 04:55:05 10° N
ADEOS 4.0 04:47:05 10° N 04:51:58 43° WNW 04:53:16 36° WSW
SL-16 R/B 2.2 04:48:20 10° NNW 04:54:02 86° ENE 04:59:43 10° SSE
UNKNOWN OBJECT B 3.9 04:50:55 10° NNW 04:53:49 28° WNW 04:53:49 28° WNW
Cosmos 1602 Rocket 3.4 04:53:48 29° S 04:55:57 87° E 05:00:17 10° N
CZ-4B R/B 4.3 04:52:11 10° NNE 04:56:04 37° E 04:59:45 10° SSE
NOSS 3-2 (C) 3.7 04:53:13 22° SSW 04:56:58 63° ESE 05:03:15 10° NE
Cosmos 2058 Rocket 3.5 04:53:38 10° NNW 04:57:47 40° W 04:58:13 39° WSW
Cosmos 1470 3.4 04:57:20 10° N 05:01:16 56° E 05:05:09 10° SSE
Cosmos 2228 3.8 04:57:54 10° NNW 05:01:28 32° W 05:01:28 32° W
Resurs 1-4 Rocket 4.1 05:02:16 10° NW 05:04:07 12° WNW 05:04:38 12° WNW
Cosmos 540 Rocket 3.4 05:02:53 26° SSW 05:05:52 80° WNW 05:11:02 10° NNE
ATLAS 3B R/B 3.0 05:03:32 26° WSW 05:07:36 57° NW 05:14:26 10° NNE
Cosmos 1626 Rocket 3.6 05:06:34 31° SSW 05:08:25 57° W 05:12:41 10° N
Cosmos 2322 Rocket 2.1 05:03:54 10° NNW 05:09:32 74° WSW 05:15:06 10° SSE
NOSS 3-2 (A) 3.4 05:10:13 25° SW 05:13:49 70° NW 05:20:15 10° NNE
Cosmos 1833 4.3 05:10:33 15° SSW 05:15:23 84° ESE 05:21:12 10° NNE
Cosmos 292 Rocket 4.2 05:13:38 27° WSW 05:15:45 43° WNW 05:20:21 10° N
Cosmos 1707 2.7 05:13:05 14° S 05:16:21 83° E 05:20:15 10° N
Cosmos 1378 3.0 05:14:37 24° SSW 05:16:44 67° W 05:20:28 10° N
SJ 16-02 1.7 05:12:47 10° NNW 05:17:11 69° ENE 05:21:34 10° SSE
MOS 1-B 4.4 05:15:42 10° NNE 05:21:33 86° ESE 05:27:22 10° SSW
BREEZE-M DEB (TANK) 4.3 05:18:58 13° SSW 05:22:10 32° SE 05:25:27 10° ENE
ATLAS CENTAUR R/B 3.5 05:18:54 10° NNW 05:22:57 33° NE 05:27:11 10° ESE
USA 215 3.4 05:21:17 10° NE 05:27:43 62° NW 05:32:57 16° WSW
CENTAUR R/B 3.4 05:22:48 10° S 05:28:15 45° ESE 05:34:24 10° NE
H-II Stage 2 4.1 05:30:23 16° SW 05:34:17 46° SSE 05:59:38 10° E
Meteor 1-31 Rocket 3.7 05:31:01 10° NNE 05:34:47 49° E 05:38:30 10° S
CZ-4B R/B 4.0 05:29:31 10° NNE 05:34:58 54° E 05:40:16 10° S
Cosmos 1953 2.8 05:31:54 10° NNW 05:35:44 40° W 05:39:32 10° SSW
PSLV R/B 3.6 05:32:49 10° N 05:36:39 70° WNW 05:40:22 10° SSW
Cosmos 1553 Rocket 4.3 05:31:57 10° S 05:38:19 75° E 05:44:44 10° N
Cosmos 44 4.1 05:33:36 10° NW 05:38:23 35° WSW 05:43:14 10° S
CZ-3C R/B 3.5 05:35:46 10° S 05:38:27 14° SE 05:43:32 10° ESE
SEDSat Delta rocket 4.4 05:33:53 15° WSW 05:38:57 46° S 05:45:25 10° ESE
Cosmos 1400 Rocket 4.2 05:35:27 10° SSE 05:39:06 39° E 05:42:48 10° NNE
IDEFIX/ARIANE 42P 4.2 05:41:17 10° NNE 05:46:05 36° E 05:50:52 10° SSE
Cosmos 1125 Rocket 3.5 05:41:04 10° NNW 05:46:21 72° WSW 05:51:36 10° S
Cosmos 2292 Rocket 3.8 05:44:31 10° N 05:47:57 51° E 05:50:52 10° SSE
Meteor 1-28 Rocket 3.4 05:45:18 10° SSE 05:49:00 77° ENE 05:52:47 10° N
Aureole 2 Rocket 2.5 05:45:27 10° NNW 05:49:10 61° WSW 05:52:37 10° S
Cosmos 2322 4.0 05:46:13 10° NNW 05:51:58 78° ENE 05:57:40 10° SSE
PSLV R/B 3.0 05:49:55 14° WSW 05:52:22 72° NNW 05:55:22 10° ENE
Meteor PRIRODA 3.6 05:50:26 10° N 05:54:08 88° WNW 05:57:50 10° SSW
CZ-4B R/B 3.8 05:50:42 10° NNE 05:54:33 87° ESE 05:58:33 10° SSW
CZ-4B DEB 4.2 05:50:44 10° NNE 05:56:18 81° WNW 06:01:48 10° SSW
Cosmos-2242 4.0 05:52:23 10° N 05:56:35 51° E 06:00:42 10° SSE
Okean O Rocket 1.5 05:52:52 10° N 05:57:13 73° WNW 06:01:32 10° SSW
ERBS 2.7 05:55:23 11° WSW 05:58:27 47° NW 06:01:45 10° NNE
Cosmos 1825 Rocket 3.7 05:54:16 10° SSW 05:58:29 52° W 06:02:42 10° N
USA 267 4.5 05:54:29 10° ESE 06:00:37 45° NE 06:06:46 10° NW
BREEZE-M DEB 3.8 05:59:31 10° SW 06:01:44 62° SE 06:04:27 10° ENE
Cosmos 44 Rocket 4.3 06:03:01 10° NW 06:07:21 28° WSW 06:11:41 10° SSW
Cosmos 372 Rocket 4.5 06:05:20 10° NW 06:10:08 38° W 06:14:52 10° SSW
Meteor 2-5 Rocket 3.8 06:05:04 10° SSW 06:10:28 57° WNW 06:15:59 10° N
